FENGYUN 1C DEB, 30322

Orbit data source: Space-Track

FENGYUN 1C DEB, 30322 is space debris in SSO originally from a launch on Mon, 10 May 1999 UTC launched from the Taiyaun Space Center, China (TSC). Fengyun 1C debris stems from the Chinese weather satellite Fengyun-1C, which was intentionally destroyed by a Chinese anti-satellite missile in 2007. This event dramatically increased the amount of space debris, with thousands of trackable fragments posing hazards to satellites and human spaceflight. The Fengyun 1C debris cloud has become a focal point in discussions about space sustainability and the need for international regulations to prevent the creation of new debris.

Loading next visibility...
Identifier
30322, 1999-025AAK
Orbit
SSO
Country
Flag of CNCN / PRC
Related business
Manufacturer
Unknown
Mission
Spacecraft
Bus & Motor
Unknown
Mass
Unknown
Launch date (UTC)
1999-05-10 (27 years ago)
Launch vehicle
Unknown
Launch site
Taiyaun Space Center, China (TSC)
Object type
Payload
Rocket body
Debris
Shape & HBR
Unknown shape, 0.1 m
Radar Cross Section
Medium (>0.1 m² and <1 m²)

Expand to show TLE details & history
Last TLE update: 8 hours ago

TLE from 8 hours ago
0 FENGYUN 1C DEB
1 30322U 99025AAK 26178.54270652  .00001318  00000-0  75686-3 0  9998
2 30322  98.3833  27.0883 0128133  53.3722 307.9152 14.06823259989669
Epoch: 2026-06-27T13:01Z
TLE epoch observation values (Epoch: 2026-06-27T13:01:29.843Z)
Latitude
0.00001°
Longitude
-83.94141°
Altitude
816.836 km
Speed
7.474 km/s
True Right ascension
01h 48m 21s
True Declination
0° 00' 00"
Sunlit
Object was in daylight at epoch
Visualization orbit readout
Latitude
Unknown
Longitude
Unknown
Altitude
Unknown
Speed
Unknown
Apparent Right ascension
Unknown
Apparent Declination
Unknown
Sunlit
N/A
Visualization observer readout
Local Sidereal Time
08:03:13
Azimuth
Unknown
Elevation
Unknown
Doppler factor
Unknown
Orbital elements
Apogee altitude
960.263 km
Perigee altitude
774.584 km
Semi-major axis
7,245.56 km
Eccentricity
0.01281
Inclination
98.3833°
RAAN
27.0883°
Arg. of periapsis
53.3722°
True anomaly
306.7454°
Mean anomaly
307.9152°
Eccentric anomaly
307.33145°
Mean motion
3.51913 °/min
Orbital period
102.3 mins
BSTAR
0.00075686
Loading maneuver chart data...
Computing Atmospheric mass density...

Documentation

Showing up to 5 results
|